#timestamp,LO_Frequency,Hit,StdDev 
1501545615.6,286047001.7,N,1.0
1501545635.5,286047001.8,P,0.6
1501545655.3,286047002.5,P,0.8
1501545675.2,286047002.2,N,0.7
1501545695.9,286047001.8,N,0.6
1501545715.7,286047002.2,P,0.2
1501545735.6,286047000.0,N,1.0
1501545755.4,286047000.7,N,0.9
1501545775.3,286046998.6,N,1.3
1501545795.1,286046998.5,N,1.4
1501545796.0,286046998.5,N,1.5
1501545815.8,286046999.3,N,1.4
1501545835.7,286046998.6,N,1.4
1501545855.5,286047001.1,N,1.4
1501545875.4,286046998.4,N,1.4
1501545895.2,286046998.3,N,1.4
1501545915.0,286047001.1,N,1.4
1501545915.9,286047001.1,N,1.4
1501545935.8,286047000.3,N,1.3
1501545955.6,286047000.0,N,1.3
1501545975.4,286047000.0,N,1.2
1501545995.3,286047001.0,N,1.2
1501546015.1,286047001.2,N,1.2
1501546035.9,286046998.2,N,1.3
1501546055.7,286046998.2,N,1.3
1501546075.5,286047001.1,N,1.3
1501546095.4,286047000.9,N,1.3
1501546115.2,286047000.3,N,1.3
1501546135.1,286047002.8,N,1.3
1501546136.0,286047002.8,N,1.4
1501546155.8,286047002.7,N,1.5
1501546175.6,286047000.1,N,1.4
1501546195.5,286047000.3,N,1.4
1501546215.3,286047000.0,N,1.4
1501546235.2,286047000.2,N,1.4
1501546255.0,286047002.3,P,1.0
1501546255.9,286047002.3,N,1.0
1501546275.8,286047001.6,N,0.9
1501546295.6,286047002.3,N,0.8
1501546315.4,286047002.0,N,0.7
1501546335.3,286047002.1,N,0.7
1501546355.1,286047002.2,P,0.2
1501546375.9,286047000.9,P,0.5
1501546395.7,286046999.3,N,1.1
1501546415.5,286046999.1,N,1.3
1501546435.4,286046999.2,N,1.3
1501546455.2,286046998.1,N,1.4
1501546475.0,286046998.8,N,1.4
1501546476.0,286046998.8,N,1.4
1501546495.8,286046998.3,N,1.4
1501546515.6,286047000.4,N,1.3
1501546535.5,286046998.2,N,1.3
1501546555.3,286046998.9,N,1.3
1501546575.1,286047000.8,N,1.3
1501546595.9,286046998.8,N,1.3
1501546615.7,286046998.4,N,1.3
1501546635.6,286047001.0,N,1.3
1501546655.4,286047000.4,N,1.3
1501546675.2,286047000.5,N,1.2
1501546695.1,286046998.2,N,1.2
1501546696.0,286046998.2,N,1.3
1501546715.8,286047001.1,N,1.3
1501546735.7,286046998.9,N,1.2
1501546755.5,286046999.3,N,1.2
1501546775.3,286046999.3,N,1.2
1501546795.2,286046998.4,N,1.2
1501546815.0,286046999.3,N,1.2
1501546815.9,286046999.3,N,1.2
1501546835.8,286046998.3,N,1.2
1501546855.6,286047001.0,N,1.2
1501546875.4,286046999.8,N,1.1
1501546895.3,286047000.8,N,1.0
1501546915.1,286047000.5,N,1.0
1501546935.9,286047002.8,N,1.2
1501546955.7,286046999.7,N,1.2
1501546975.5,286047001.0,N,1.2
1501546995.4,286047001.2,N,1.2
1501547015.2,286047000.5,N,1.2
1501547035.1,286046999.9,N,1.2
1501547036.0,286046999.9,N,1.1
1501547055.8,286047000.7,N,1.1
1501547075.6,286047001.2,N,1.1
1501547095.5,286046998.5,N,1.1
1501547115.3,286047000.7,N,1.1
1501547135.2,286047000.4,N,1.1
1501547155.9,286047000.2,N,1.1
1501547175.7,286046999.9,N,1.1
1501547195.6,286047002.3,N,1.1
1501547215.4,286047001.2,N,1.2
1501547235.3,286047000.7,N,1.1
1501547255.1,286046999.3,N,1.1
1501547256.0,286046999.3,N,1.1
1501547275.8,286047001.2,N,1.0
1501547295.7,286047000.6,N,1.0
1501547315.4,286046998.3,N,1.1
1501547335.3,286047000.9,N,1.0
1501547355.1,286047000.9,N,1.0
1501547375.9,286047000.8,N,1.0
1501547395.7,286046998.3,N,1.0
1501547415.5,286046998.4,N,1.1
1501547435.4,286046999.9,N,1.1
1501547455.2,286046998.2,N,1.1
1501547475.1,286047000.8,N,1.1
1501547476.0,286047000.8,N,1.0
1501547495.8,286047000.6,N,1.0
1501547515.6,286046998.2,N,1.1
1501547535.5,286047000.5,N,1.1
1501547555.3,286047002.8,N,1.2
1501547575.2,286047002.5,N,1.2
1501547595.0,286047001.6,N,1.3
1501547595.9,286047001.6,N,1.3
1501547615.7,286047002.4,N,1.3
1501547635.6,286047002.3,N,1.3
1501547655.4,286047001.7,N,1.3
1501547675.3,286047002.7,N,1.4
1501547695.1,286046999.7,N,1.4
1501547715.8,286047002.5,N,1.4
1501547735.7,286047002.0,N,1.4
1501547755.5,286047000.2,N,1.4
1501547775.4,286047002.8,N,1.5
1501547795.2,286047002.5,N,1.5
1501547815.0,286047002.7,N,1.5
1501547815.9,286047002.7,N,1.5
1501547835.8,286047002.3,N,1.5
1501547855.6,286047001.6,N,1.4
1501547875.5,286047002.3,N,1.5
1501547895.3,286047002.8,N,1.5
1501547915.1,286047002.5,N,1.5
1501547935.9,286047002.3,N,1.4
1501547955.7,286047002.4,N,1.3
1501547975.5,286047002.2,N,1.3
1501547995.4,286047001.3,N,1.1
1501548015.2,286047001.7,N,1.1
1501548035.1,286047001.9,N,1.0
1501548036.0,286047001.9,N,1.0
1501548055.8,286047002.5,N,0.8
1501548075.7,286047002.7,P,0.3
1501548095.5,286046998.5,P,1.8
1501548115.3,286046998.1,N,2.1
1501548135.2,286047001.2,N,1.9
1501548155.0,286047000.5,N,1.7
1501548155.9,286047000.5,N,1.6
1501548175.8,286047000.6,N,1.5
1501548195.6,286047000.3,N,1.4
1501548215.4,286047000.9,N,1.3
1501548235.3,286047000.4,N,1.3
1501548255.1,286047000.3,N,1.2
1501548275.9,286047000.0,N,1.2
1501548295.7,286046999.8,N,1.1
1501548315.5,286047002.8,N,1.3
1501548335.4,286047000.0,N,1.2
1501548355.2,286047000.2,N,1.2
1501548375.0,286047002.7,N,1.3
1501548376.0,286047002.7,N,1.3
1501548395.8,286047002.7,N,1.3
1501548415.6,286047001.9,N,1.3
1501548435.5,286047002.5,N,1.3
1501548455.3,286047002.4,N,1.3
1501548475.1,286047002.8,N,1.4
1501548495.9,286047000.3,N,1.3
1501548515.7,286047000.9,N,1.3
1501548535.6,286047000.7,N,1.3
1501548555.4,286047000.6,N,1.3
1501548575.2,286046999.9,N,1.3
1501548595.1,286046999.8,N,1.3
1501548596.0,286046999.8,N,1.3
1501548615.8,286046999.9,N,1.2
1501548635.7,286046999.7,N,1.2
1501548655.5,286047002.5,N,1.1
1501548675.3,286047002.5,N,1.1
1501548695.2,286047002.5,N,1.2
1501548715.0,286047002.4,N,1.2
1501548715.9,286047002.4,N,1.2
1501548735.8,286047001.9,N,1.2
1501548755.6,286047000.2,N,1.2
1501548775.4,286047000.0,N,1.2
1501548795.3,286046999.9,N,1.2
1501548815.1,286046999.7,N,1.2
1501548835.8,286046999.8,N,1.2
1501548855.7,286047002.8,N,1.2
1501548875.5,286047002.1,N,1.2
1501548895.4,286047002.2,N,1.2
1501548915.2,286047004.4,P,1.5
1501548935.0,286047001.3,N,1.5
1501548935.9,286047001.3,N,1.3
1501548955.8,286047001.6,N,1.2
1501548975.6,286047004.4,P,1.2
1501548995.5,286047002.2,N,1.1
1501549015.3,286047002.1,N,1.0
1501549035.1,286047002.5,N,0.9
1501549055.9,286047002.3,N,0.8
1501549075.7,286047000.2,N,1.1
1501549095.6,286046999.9,N,1.3
1501549115.4,286046999.8,N,1.4
1501549135.2,286047001.0,N,1.4
1501549155.1,286047000.9,N,1.3
1501549156.0,286047000.9,N,1.3
1501549175.8,286047001.0,N,1.2
1501549195.7,286047001.0,N,1.2
